Location: Aula-Vintri
(58.3875°N, 22.4322°E)
Time: 22:07:19
(UTC+00:00)

Cosmos 2150 Rocket - Pass Details

Date: 13 October 2019
Orbit: 749 x 808 km, 74.0° (Epoch: 10 November)

Event Time Altitude Azimuth Distance (km) Brightness Sun altitude
Rises 18:47:35 0° 328° (NNW) 3,341 8.3 -25.8°
Reaches altitude 10° 18:50:05 10° 333° (NNW) 2,406 7.3 -26.0°
Enters shadow 18:55:12 52° 40° (NE) 1,002 4.4 -26.6°
